#timestamp,LO_Frequency,Hit 
1505080815.6,286047007.0,N
1505080835.4,286047008.9,N
1505080855.2,286047010.5,N
1505080875.1,286047010.8,N
1505080876.0,286047010.8,N
1505080895.8,286047008.6,N
1505080915.6,286047010.7,N
1505080935.5,286047012.1,P
1505080955.3,286047004.7,P
1505080975.1,286047006.0,N
1505080995.9,286047002.7,N
1505081015.7,286047002.3,N
1505081035.5,286047003.7,N
1505081055.4,286047004.4,N
1505081075.2,286047004.1,N
1505081095.0,286047003.5,N
1505081095.9,286047003.5,N
1505081115.8,286047004.4,N
1505081135.6,286046999.8,N
1505081155.4,286046998.7,N
1505081175.3,286046997.0,N
1505081195.1,286046998.7,N
1505081196.0,286046998.7,N
1505081215.8,286047000.9,N
1505081235.7,286047000.2,N
1505081255.5,286047003.5,N
1505081275.3,286047005.7,N
1505081295.1,286046999.7,N
1505081315.9,286047002.3,N
1505081335.7,286046999.7,N
1505081355.5,286046998.6,N
1505081375.4,286047002.3,N
1505081395.2,286047002.0,N
1505081415.0,286047004.7,N
1505081415.9,286047004.7,N
1505081435.8,286047004.7,N
1505081455.6,286047010.6,P
1505081475.4,286047007.0,N
1505081495.3,286047005.5,N
1505081515.1,286046999.9,N
1505081535.8,286046994.3,N
1505081555.7,286046993.5,N
1505081575.5,286046995.2,N
1505081595.3,286046996.3,N
1505081615.2,286046992.3,N
1505081635.9,286046990.2,N
1505081655.7,286046992.6,N
1505081675.6,286046991.0,N
1505081695.4,286046988.1,N
1505081715.2,286046985.4,N
1505081735.0,286046984.3,N
1505081735.9,286046984.3,N
1505081755.8,286046982.1,N
1505081775.6,286046984.1,N
1505081795.4,286046984.6,N
1505081815.3,286046984.5,N
1505081835.1,286046982.8,N
1505081855.8,286046981.2,N
1505081875.7,286046981.5,N
1505081895.5,286046979.8,N
1505081915.3,286046978.4,N
1505081935.2,286046977.1,N
1505081955.9,286046972.9,P
1505081975.7,286046986.8,N
1505081995.6,286046989.9,N
1505082015.4,286046986.5,N
1505082035.2,286046983.6,N
1505082055.1,286046983.1,N
1505082056.0,286046983.1,P
1505082075.8,286046994.3,P
1505082095.6,286046994.5,N
1505082115.5,286046995.4,N
1505082135.3,286046995.2,N
1505082155.1,286046996.6,N
1505082175.9,286046999.3,N
1505082195.7,286046997.2,N
1505082215.5,286046997.9,N
1505082235.3,286046998.9,N
1505082255.2,286047001.6,N
1505082275.0,286047003.9,N
1505082275.9,286047003.9,N
1505082295.7,286047000.2,N
1505082315.6,286047002.7,N
1505082335.4,286047001.6,N
1505082355.2,286046999.9,N
1505082375.1,286046999.2,N
1505082376.0,286046999.2,N
1505082395.8,286046997.2,N
1505082415.6,286046996.8,N
1505082435.5,286047000.2,N
1505082455.3,286047001.4,N
1505082475.1,286047007.1,N
1505082495.9,286047011.6,N
1505082515.7,286047015.6,N
1505082535.5,286047015.2,N
1505082555.3,286047015.8,N
1505082575.2,286047018.5,N
1505082595.0,286047016.2,N
1505082595.9,286047016.2,N
1505082615.7,286047019.5,N
1505082635.6,286047018.9,N
1505082655.4,286047023.9,N
1505082675.2,286047025.7,N
1505082695.1,286047026.1,N
1505082696.0,286047026.1,N
1505082715.8,286047024.9,N
1505082735.6,286047020.9,N
1505082755.5,286047025.1,N
1505082775.3,286047021.5,N
1505082795.1,286047020.7,N
1505082815.9,286047025.1,N
1505082835.7,286047029.4,N
1505082855.5,286047027.5,N
1505082875.4,286047028.4,N
1505082895.2,286047026.5,N
1505082915.0,286047026.6,N
1505082915.9,286047026.6,N
1505082935.8,286047029.5,P
1505082955.6,286047010.7,N
1505082975.4,286047008.6,N
1505082995.3,286047006.4,N
1505083015.1,286047010.0,N
1505083016.0,286047010.0,N
1505083035.8,286047009.4,N
1505083055.7,286047010.6,N
1505083075.5,286047010.5,N
1505083095.3,286047010.5,N
1505083115.2,286047008.8,N
1505083135.9,286047009.6,N
1505083155.7,286047010.1,N
1505083175.5,286047011.2,N
1505083195.4,286047014.4,N
1505083215.2,286047011.1,N
1505083235.0,286047010.3,N
1505083235.9,286047010.3,N
1505083255.8,286047010.0,N
1505083275.6,286047010.0,N
1505083295.4,286047012.0,N
1505083315.3,286047010.4,N
1505083335.1,286047008.9,N
1505083355.8,286047009.4,N
1505083375.7,286047013.8,P
1505083395.5,286047001.1,N
1505083415.3,286046996.8,N
1505083435.2,286046995.4,N
1505083455.9,286046993.9,N
1505083475.7,286046994.5,N
1505083495.6,286046990.3,N
1505083515.4,286046985.3,N
1505083535.2,286046986.5,N
1505083555.1,286046983.3,N
1505083556.0,286046983.3,N
1505083575.8,286046983.4,N
1505083595.6,286046982.8,N
1505083615.5,286046983.6,N
1505083635.3,286046981.1,N
1505083655.1,286046982.9,N
1505083675.9,286046984.5,N
1505083695.7,286046982.7,N
1505083715.5,286046983.5,N
1505083735.4,286046981.5,N
1505083755.2,286046980.4,N
1505083775.0,286046972.9,N
1505083775.9,286046972.9,N
1505083795.7,286046975.6,N
1505083815.6,286046976.5,N
1505083835.4,286046980.4,N
1505083855.2,286046978.6,N
1505083875.1,286046972.5,N
1505083876.0,286046972.5,N
1505083895.8,286046971.2,N
1505083915.6,286046973.4,N
1505083935.5,286046973.1,P
1505083955.3,286046990.2,N
1505083975.1,286046990.7,N
1505083995.9,286046995.2,N
1505084015.7,286046997.6,N
1505084035.5,286046992.0,N
1505084055.4,286046989.1,N
1505084075.2,286046989.9,N
1505084095.0,286046989.9,N
1505084095.9,286046989.9,N
1505084115.8,286046985.3,N
1505084135.6,286046989.3,N
1505084155.4,286046988.8,N
1505084175.3,286046987.1,N
1505084195.1,286046990.0,N
1505084196.0,286046990.0,N
1505084215.8,286046987.5,N
1505084235.7,286046989.2,N
1505084255.5,286046987.5,N
1505084275.3,286046988.3,N
1505084295.1,286046986.5,N
1505084315.9,286046982.4,P
1505084335.7,286046992.8,N
1505084355.5,286046997.9,N
1505084375.4,286047001.2,N
1505084395.2,286047005.0,N
